Wind_Speed
24 24 24 24 23 24 25 27 22 29 29 33 35 37 35 40 43 40 41 42 41 40
21 21 23 24 23 23 24 25 17 18 10 16 26 28 27 26 31 31 37 42 39 41
17 18 21 23 27 26 25 17 17 15 16 12 8 14 13 9 23 27 29 32 33 35
10 13 18 21 21 18 13 14 14 10 10 14 16 21 21 20 21 24 28 33 36 36
23 21 22 19 15 13 9 4 5 4 4 8 8 10 23 24 28 28 24 28 34 45
24 28 25 22 18 15 13 12 8 5 4 3 6 8 8 11 14 17 26 23 24 19
22 22 20 17 14 10 10 7 7 6 5 6 5 7 9 12 14 16 18 21 22 23
18 16 14 13 11 10 8 8 7 7 7 7 9 11 13 14 16 18 20 21 22 23
15 13 13 12 11 10 9 9 9 10 11 12 12 14 16 17 19 20 22 25 25 25
13 13 13 13 12 12 13 13 14 14 15 15 17 18 19 21 22 23 24 25 26 28
14 14 14 14 15 16 17 18 19 19 20 21 22 23 24 26 26 27 27 28 29 30
15 15 15 16 16 16 16 17 18 20 21 22 23 23 23 24 26 27 28 28 28 28
15 15 14 14 14 15 17 19 21 22 23 23 24 24 24 23 22 24 24 24 26 27
13 13 14 15 18 19 22 24 25 27 28 28 29 29 27 23 23 25 26 27 28 25
Wind_Direction
230 238 243 249 253 250 253 258 265 264 257 256 253 247 244 240 239 235 238 234 242 250
232 242 244 251 250 249 240 237 248 239 230 236 235 228 230 240 231 231 235 235 236 247
240 243 246 243 239 233 230 241 230 203 198 210 219 204 214 220 227 229 231 237 240 242
193 183 188 168 133 135 142 153 165 190 219 236 242 246 258 263 268 261 257 257 257 259
93 94 101 97 97 93 135 118 153 131 190 242 263 245 249 255 254 260 264 269 271 260
78 68 68 64 60 60 58 45 42 26 11 325 312 311 293 283 278 268 258 279 281 273
67 67 69 72 76 72 67 63 47 31 9 355 327 299 291 287 285 278 274 276 279 275
71 70 64 61 57 47 37 28 19 7 350 334 325 315 308 299 295 292 290 288 286 284
57 50 47 42 33 23 17 6 354 342 339 335 329 321 316 309 306 302 299 295 290 288
37 30 25 19 10 4 359 353 346 340 334 332 329 323 318 315 311 307 304 302 299 295
21 15 7 358 352 349 345 343 342 339 335 333 331 327 323 319 314 308 305 302 299 296
357 349 345 341 341 340 338 339 338 337 335 332 329 327 325 321 314 310 307 305 305 302
342 341 341 342 345 349 349 348 345 343 341 340 338 337 337 334 325 319 314 307 302 298
339 343 347 350 350 347 344 343 343 342 342 341 341 340 341 335 329 326 322 319 317 310
Height
1447 1449 1452 1454 1456 1458 1459 1460 1460 1461 1463 1464 1465 1467 1470 1473 1477 1481 1484 1487 1491 1494
1443 1445 1447 1449 1451 1453 1453 1455 1456 1458 1458 1459 1461 1461 1463 1467 1471 1475 1478 1481 1485 1487
1439 1440 1442 1443 1445 1447 1449 1447 1451 1454 1456 1458 1458 1459 1462 1463 1466 1469 1473 1476 1478 1479
1437 1437 1439 1439 1435 1437 1442 1443 1445 1448 1451 1454 1456 1458 1458 1460 1460 1464 1468 1469 1470 1471
1437 1434 1430 1433 1437 1441 1443 1445 1447 1447 1449 1452 1453 1453 1454 1456 1458 1459 1461 1461 1461 1462
1442 1433 1437 1439 1440 1446 1445 1445 1447 1448 1449 1451 1451 1452 1452 1452 1452 1452 1454 1455 1452 1450
1443 1442 1445 1447 1448 1450 1449 1449 1449 1449 1450 1449 1450 1450 1449 1449 1449 1449 1449 1448 1447 1447
1449 1448 1450 1450 1450 1450 1449 1449 1449 1449 1449 1448 1447 1446 1446 1446 1445 1444 1443 1443 1443 1442
1451 1451 1451 1451 1451 1450 1450 1449 1448 1447 1447 1445 1444 1443 1442 1441 1440 1438 1437 1436 1435 1434
1453 1452 1451 1450 1450 1449 1448 1447 1446 1444 1443 1442 1440 1439 1438 1436 1434 1433 1431 1429 1427 1425
1452 1451 1450 1449 1448 1447 1445 1444 1441 1440 1438 1437 1436 1433 1431 1429 1427 1426 1425 1423 1420 1418
1452 1451 1449 1447 1446 1444 1444 1441 1439 1437 1435 1432 1431 1429 1427 1424 1421 1419 1417 1415 1413 1411
1450 1448 1446 1444 1442 1440 1437 1435 1433 1431 1429 1426 1423 1421 1419 1417 1414 1412 1410 1408 1406 1404
1447 1445 1442 1440 1437 1434 1432 1430 1427 1425 1423 1420 1417 1415 1413 1411 1408 1406 1403 1399 1396 1395